GFSGL_700_temp_162.txt.gz
Temp
4 4 3 3 3 3 3 2 2 2 2 1 1 1 1 1 2 2 2 2 2 0 0 -0 -0 -0 -0 -0 -1 -1 -1 -2 -2 -2 -1 -2 -2 -2 -2 -1 -1 -2 -2
4 4 3 3 3 3 2 2 2 1 1 1 1 1 2 2 2 2 3 2 2 1 0 0 0 1 -0 -0 -0 -1 -1 -1 -2 -2 -2 -2 -2 -2 -2 -1 -1 -1 -2
4 4 3 3 4 3 2 2 1 1 1 1 0 -0 0 2 2 2 2 2 1 1 0 1 1 -0 -0 -0 -1 -1 -1 -1 -1 -2 -2 -2 -2 -1 -1 -2 -2 -2 -2
4 4 3 4 3 2 1 0 1 1 1 1 1 1 1 1 1 1 1 1 1 1 0 -0 -1 -1 -0 -1 -1 -1 -2 -1 -1 -2 -1 -1 -2 -2 -2 -2 -2 -2 -3
4 4 4 3 3 2 1 0 0 1 1 1 1 1 1 1 1 1 1 1 0 -0 -0 -1 -0 -1 -1 -1 -1 -2 -1 -1 -2 -2 -2 -2 -2 -2 -3 -3 -3 -3 -3
3 4 3 3 3 2 1 0 1 0 1 1 1 1 1 1 1 1 0 -0 -0 -0 -0 -0 -1 -1 -1 -1 -1 -2 -2 -2 -2 -1 -2 -2 -2 -2 -2 -2 -3 -3 -3
3 4 3 3 3 2 2 0 -0 0 1 1 0 0 0 0 0 -0 -0 0 -0 -0 -0 -1 -1 -1 -1 -1 -2 -2 -2 -2 -2 -2 -2 -2 -2 -3 -3 -3 -3 -3 -3
3 3 3 3 3 2 2 1 0 0 1 0 1 0 0 0 -0 0 -1 0 -0 -0 -1 -1 -1 -1 -1 -2 -2 -2 -2 -2 -2 -2 -2 -3 -3 -3 -3 -3 -3 -4 -4
3 3 3 3 2 2 2 2 1 1 -0 -1 -0 -0 -0 0 0 1 0 0 -0 -0 -1 -1 -1 -1 -1 -2 -2 -2 -2 -2 -3 -3 -4 -4 -4 -4 -4 -4 -4 -5 -5
3 3 2 2 2 2 2 2 2 2 1 1 1 1 1 1 1 0 0 -0 -0 -1 -1 -1 -1 -2 -2 -2 -2 -2 -3 -3 -3 -3 -3 -4 -4 -4 -5 -5 -5 -5 -5
3 3 2 2 2 2 2 2 2 2 2 2 1 1 1 0 1 0 0 -0 -0 -1 -1 -1 -1 -1 -2 -2 -2 -2 -3 -3 -3 -4 -4 -4 -5 -5 -5 -5 -6 -6 -6
3 3 2 2 2 2 2 2 2 1 1 1 1 1 1 0 0 -0 -1 -1 -1 -1 -1 -2 -2 -2 -3 -3 -3 -3 -3 -3 -4 -4 -5 -5 -6 -6 -6 -6 -6 -6 -7
3 2 2 2 2 2 2 2 1 1 1 1 1 0 0 0 -0 -0 -1 -1 -1 -1 -2 -2 -2 -3 -3 -3 -3 -3 -3 -4 -4 -5 -5 -5 -5 -6 -6 -7 -7 -8 -8
3 3 2 2 2 2 2 1 1 1 1 1 1 0 0 -0 -0 -1 -1 -1 -2 -2 -2 -2 -2 -3 -2 -3 -3 -3 -4 -4 -5 -5 -5 -6 -6 -7 -7 -8 -8 -9 -9
2 2 2 2 2 1 1 1 1 1 1 0 0 0 -0 -1 -1 -1 -1 -2 -2 -2 -2 -2 -2 -3 -3 -3 -3 -4 -4 -4 -5 -6 -6 -7 -7 -7 -8 -9 -9 -10 -10
2 2 2 2 2 1 1 2 1 1 0 0 -0 -0 -1 -1 -1 -1 -2 -2 -2 -2 -2 -3 -3 -3 -3 -3 -4 -4 -5 -5 -5 -6 -6 -7 -7 -8 -9 -9 -10 -10 -11
2 2 2 2 2 2 1 1 1 1 0 0 -0 -1 -1 -1 -1 -2 -2 -2 -3 -2 -2 -3 -3 -3 -3 -4 -4 -4 -5 -5 -6 -6 -7 -7 -8 -9 -9 -10 -10 -11 -11
2 2 2 2 2 1 1 1 0 -0 -0 -0 -0 -1 -1 -1 -2 -2 -3 -3 -3 -2 -2 -3 -3 -3 -3 -4 -4 -5 -5 -6 -6 -7 -8 -8 -9 -9 -10 -10 -11 -11 -12
2 2 2 2 2 1 1 1 1 1 0 0 -0 -1 -1 -2 -2 -2 -3 -3 -3 -2 -2 -2 -3 -3 -4 -4 -5 -5 -6 -6 -7 -8 -8 -9 -10 -10 -10 -11 -11 -12 -12
2 2 2 2 2 1 1 1 1 1 0 -0 -1 -1 -1 -2 -2 -3 -3 -3 -3 -2 -2 -3 -3 -3 -4 -5 -5 -6 -6 -7 -7 -8 -9 -10 -10 -11 -11 -11 -12 -12 -12
2 2 2 2 2 1 1 1 1 0 0 -0 -1 -1 -2 -2 -2 -3 -3 -3 -3 -2 -3 -3 -3 -4 -4 -5 -5 -6 -6 -7 -8 -9 -9 -10 -10 -11 -11 -12 -12 -12 -13
2 2 2 2 2 2 1 1 1 0 -0 -0 -1 -1 -2 -2 -2 -3 -3 -3 -3 -2 -3 -3 -3 -4 -5 -5 -6 -6 -7 -8 -8 -9 -9 -10 -11 -11 -12 -12 -12 -13 -13
2 2 3 2 2 2 1 1 1 0 -0 -0 -1 -1 -2 -2 -3 -3 -3 -3 -2 -3 -3 -3 -4 -4 -5 -5 -6 -6 -7 -8 -9 -9 -10 -10 -11 -11 -12 -12 -12 -12 -12
2 2 3 2 2 2 2 1 1 0 -0 -1 -1 -1 -2 -2 -2 -3 -3 -2 -2 -2 -3 -3 -4 -4 -5 -5 -6 -6 -7 -8 -8 -9 -10 -10 -11 -11 -12 -12 -12 -12 -12
2 2 3 2 2 2 2 1 1 0 -0 -1 -1 -1 -1 -2 -2 -2 -2 -1 -2 -2 -3 -3 -3 -4 -5 -5 -6 -6 -7 -8 -8 -9 -9 -10 -11 -11 -11 -12 -12 -12 -12
3 3 3 2 2 2 2 1 1 0 -0 -1 -1 -1 -1 -1 -2 -1 -1 -1 -2 -2 -2 -3 -3 -4 -5 -5 -6 -6 -7 -8 -8 -9 -9 -10 -11 -11 -11 -12 -12 -12 -12

GFSGL_700_temp_168.txt.gz
Temp
4 4 4 4 4 4 4 3 3 2 2 2 2 1 1 1 2 2 2 1 1 1 1 0 0 1 0 -0 -1 -1 -1 -1 -1 -1 -2 -2 -2 -2 -2 -2 -2 -2 -2
4 4 4 4 4 4 4 3 2 2 2 2 2 1 1 1 1 2 2 1 1 1 1 1 1 0 0 -0 -0 -1 -1 -1 -1 -2 -1 -2 -2 -2 -2 -2 -2 -2 -2
3 4 4 4 4 4 4 3 2 2 2 2 1 0 0 1 1 1 1 1 1 1 1 1 1 0 0 0 -0 -1 -1 -1 -1 -1 -2 -2 -2 -2 -2 -2 -2 -2 -2
3 3 4 4 4 4 4 3 1 1 2 1 0 -0 -0 0 1 1 1 1 1 1 1 0 0 0 -0 -1 -1 -1 -1 -1 -1 -2 -2 -2 -2 -2 -2 -2 -2 -2 -2
3 4 4 3 4 4 3 0 1 1 1 2 1 -1 0 -1 1 1 1 0 0 -0 0 1 0 0 -1 -1 -2 -2 -1 -1 -1 -2 -2 -2 -2 -2 -2 -2 -2 -2 -2
3 3 3 3 3 3 2 -1 0 1 2 1 1 0 0 -0 1 0 -0 1 0 -0 -0 -1 -0 -1 -1 -1 -1 -1 -1 -1 -1 -1 -1 -1 -2 -2 -2 -2 -2 -2 -3
3 3 3 3 3 2 2 -0 -0 1 0 1 1 1 1 0 0 0 -0 -0 -1 -1 -1 -1 -1 -1 -1 -1 -1 -1 -1 -1 -1 -1 -1 -1 -2 -2 -2 -3 -3 -3 -3
3 3 3 3 2 2 2 0 1 1 0 0 0 0 0 -1 -1 -0 -0 -0 -0 -1 -1 -2 -1 -1 -1 -1 -1 -1 -1 -1 -1 -2 -2 -2 -2 -3 -3 -3 -4 -4 -4
3 3 3 2 2 2 1 0 1 1 0 0 -0 0 -0 -0 -1 -0 -1 -1 -1 -1 -0 -0 -1 -1 -1 -1 -1 -1 -2 -2 -2 -2 -2 -2 -3 -3 -3 -3 -4 -4 -4
3 3 3 2 2 2 1 1 -0 0 0 0 -1 -1 -1 -1 -0 -0 0 -0 -0 -0 -1 -1 -1 -1 -1 -1 -1 -2 -2 -2 -3 -3 -3 -3 -4 -4 -4 -5 -5 -5 -5
2 2 2 2 1 2 2 1 0 -0 1 0 1 1 1 1 1 0 0 -0 -0 -1 -1 -1 -1 -1 -2 -2 -2 -2 -2 -2 -2 -2 -2 -3 -3 -3 -4 -4 -5 -5 -6
2 2 2 2 1 2 2 2 1 1 1 1 1 1 1 1 0 0 -0 -1 -1 -1 -1 -2 -2 -2 -2 -2 -2 -2 -2 -2 -2 -3 -3 -3 -4 -4 -4 -5 -5 -6 -6
2 2 1 2 1 2 2 2 2 2 1 1 1 0 0 0 -0 -0 -0 -1 -1 -2 -2 -2 -1 -1 -2 -2 -2 -2 -2 -2 -3 -3 -3 -4 -4 -5 -6 -6 -7 -7 -7
1 1 1 1 1 2 2 2 2 1 1 1 1 0 0 -0 -0 -0 -1 -1 -2 -2 -1 -1 -1 -1 -1 -2 -2 -2 -2 -3 -3 -3 -4 -4 -5 -6 -6 -7 -7 -8 -8
1 1 1 1 2 1 2 1 1 1 0 0 0 -0 -0 -0 -0 -1 -1 -1 -1 -1 -1 -1 -1 -1 -1 -2 -2 -3 -3 -3 -3 -4 -4 -5 -6 -6 -7 -7 -8 -9 -9
1 1 1 1 2 1 1 1 1 1 1 0 0 -0 -0 -0 -1 -1 -1 -1 -1 -1 -1 -1 -1 -1 -2 -2 -2 -3 -3 -3 -4 -4 -5 -6 -6 -7 -7 -8 -9 -9 -10
1 1 0 1 1 1 1 1 1 1 1 0 -0 0 -0 -1 -1 -1 -1 -1 -1 -0 -1 -1 -1 -2 -2 -2 -2 -3 -3 -3 -4 -5 -5 -6 -6 -7 -8 -9 -9 -10 -11
0 0 0 0 1 1 1 1 1 0 1 1 0 0 -0 -1 -1 -1 -1 -1 -1 -0 -1 -1 -1 -1 -2 -2 -2 -3 -3 -4 -5 -5 -6 -6 -7 -8 -8 -9 -10 -10 -11
0 0 0 0 1 1 1 1 0 0 0 0 0 -0 -0 -1 -1 -2 -1 -1 -1 -1 -1 -1 -1 -1 -2 -2 -3 -3 -4 -4 -5 -6 -6 -7 -8 -8 -9 -10 -10 -11 -11
-0 -0 1 1 1 1 1 0 0 0 0 0 -0 -0 -1 -1 -2 -2 -1 -1 -1 -1 -1 -1 -1 -2 -2 -2 -3 -3 -4 -5 -6 -6 -7 -7 -8 -9 -9 -10 -11 -11 -11
-0 -0 1 0 1 1 0 0 0 0 0 -0 -0 -1 -1 -1 -1 -2 -1 -1 -1 -1 -1 -1 -1 -2 -2 -3 -3 -4 -5 -5 -6 -6 -7 -8 -9 -9 -10 -10 -11 -11 -12
0 -0 1 1 1 1 0 0 0 0 0 -0 -0 -0 -1 -1 -1 -1 -1 -1 -1 -1 -1 -1 -1 -2 -2 -3 -4 -4 -5 -5 -6 -7 -7 -8 -9 -10 -10 -11 -12 -12 -13
0 0 1 1 1 1 0 0 0 0 0 -0 -0 -1 -1 -1 -1 -1 -1 -1 -1 -1 -1 -1 -1 -2 -2 -3 -3 -4 -5 -5 -6 -7 -8 -8 -9 -10 -10 -11 -12 -13 -13
0 1 1 1 2 1 1 0 0 0 0 -0 -0 -1 -1 -1 -1 -1 -1 -1 -1 -1 -1 -1 -1 -2 -2 -3 -3 -4 -5 -5 -6 -7 -8 -8 -9 -10 -11 -12 -13 -13 -14
1 1 1 1 2 1 1 1 1 0 0 -0 -1 -1 -1 -1 -1 -1 -0 -0 -1 -1 -1 -1 -1 -1 -2 -3 -3 -4 -5 -5 -6 -7 -8 -9 -9 -10 -11 -12 -13 -13 -14
1 1 1 1 2 2 1 1 1 1 0 -0 -1 -1 -1 -1 -1 -0 -0 -0 -1 -1 -1 -1 -1 -2 -2 -3 -4 -4 -5 -5 -6 -7 -8 -9 -9 -10 -11 -12 -12 -13 -14

GFSGL_700_temp_171.txt.gz
Temp
4 4 4 4 4 3 3 3 3 3 3 2 2 2 1 1 1 1 1 1 1 1 1 1 0 -0 -0 -0 -0 -0 -1 -1 -1 -1 -2 -1 -2 -2 -3 -3 -3 -3 -3
4 3 4 4 3 3 3 3 3 2 2 2 2 1 1 1 1 1 1 1 1 1 1 1 0 0 -0 -0 0 -0 -1 -1 -1 -1 -1 -2 -2 -2 -2 -2 -2 -2 -2
3 3 3 3 3 3 3 3 2 2 2 2 1 1 0 0 1 1 1 1 1 1 1 1 0 1 0 -0 -0 -1 -1 -1 -1 -1 -2 -2 -2 -2 -2 -2 -2 -2 -2
3 3 3 3 4 3 3 3 2 2 1 1 1 -1 0 -0 0 1 1 1 1 1 1 1 0 0 0 0 -1 -1 -1 -1 -2 -2 -2 -2 -2 -2 -2 -2 -3 -2 -3
3 3 3 3 3 3 2 2 2 1 1 1 0 0 0 -0 -0 0 1 1 0 0 0 0 -0 0 -0 -1 -1 -1 -1 -2 -2 -2 -2 -2 -3 -3 -3 -2 -2 -3 -3
3 3 3 3 3 2 2 1 1 1 1 1 0 -0 0 -1 -0 -0 0 0 -0 -1 -0 -1 -1 -1 -1 -1 -2 -2 -2 -2 -2 -2 -2 -2 -2 -2 -3 -3 -3 -3 -3
3 3 3 3 3 2 1 -0 0 1 1 1 0 1 1 1 0 0 -0 -0 -0 -0 -1 -1 -1 -1 -1 -1 -1 -1 -1 -1 -2 -2 -2 -2 -2 -3 -3 -3 -3 -3 -3
3 3 3 3 2 1 0 -0 0 -0 0 -0 0 0 -0 -0 -0 -1 -1 -1 -1 -2 -1 -2 -2 -1 -1 -1 -1 -2 -2 -2 -2 -2 -2 -2 -2 -2 -2 -3 -3 -3 -4
3 3 2 2 2 1 0 -1 1 0 -0 1 -0 -0 -1 -1 -1 -1 -2 -1 -1 -0 -0 -1 -1 -1 -1 -1 -1 -2 -2 -2 -2 -2 -2 -2 -3 -3 -3 -3 -3 -4 -4
2 2 2 2 1 0 -0 0 -0 0 -0 -0 -0 -0 -1 -1 -1 -1 -1 -0 -0 -0 -0 -1 -1 -1 -1 -1 -1 -1 -2 -2 -2 -2 -2 -2 -2 -2 -3 -3 -4 -4 -5
2 2 2 2 1 0 -0 -0 0 -0 -1 -1 -1 0 -1 0 0 0 0 -0 -0 -1 -1 -1 -1 -1 -1 -1 -1 -1 -1 -2 -2 -2 -2 -2 -3 -3 -4 -4 -5 -5 -6
1 2 1 1 1 1 -0 -1 -2 -1 -0 0 0 1 1 0 0 -0 -0 -0 -1 -1 -1 -1 -0 -0 -1 -1 -1 -1 -2 -2 -2 -2 -3 -3 -3 -4 -4 -4 -5 -6 -6
1 1 1 1 1 1 1 0 0 1 1 1 1 0 1 0 0 -0 -0 -1 -1 -1 -1 -0 -1 -1 -1 -1 -1 -2 -2 -2 -3 -3 -3 -4 -4 -4 -4 -5 -6 -6 -7
1 1 1 1 1 1 1 0 1 1 1 1 0 0 0 -0 -0 -0 -1 -1 -1 -1 -1 -1 -0 -1 -1 -1 -2 -2 -3 -3 -3 -3 -4 -4 -4 -4 -5 -6 -7 -8 -8
1 1 1 0 0 1 1 1 1 0 0 -0 -0 -0 -0 -0 -0 -0 -1 -1 -1 -1 -1 -0 -0 -1 -1 -2 -2 -2 -3 -3 -3 -3 -4 -4 -5 -6 -6 -7 -8 -8 -9
0 1 0 0 1 1 1 1 1 0 0 0 -0 -0 -0 -0 -1 -1 -1 -1 -1 -1 -1 0 -1 -1 -2 -2 -2 -3 -3 -3 -4 -4 -4 -5 -6 -6 -7 -8 -8 -9 -10
-0 0 -0 0 1 1 1 1 1 1 0 0 -0 -0 -0 -1 -1 -1 -1 -1 -1 -1 -0 -0 -1 -1 -2 -2 -2 -3 -3 -3 -4 -4 -5 -5 -6 -7 -7 -8 -9 -10 -10
-1 -1 -0 -0 0 1 0 0 0 0 1 1 0 -0 -0 -1 -1 -1 -1 -1 -1 -0 -0 -0 -1 -1 -2 -2 -3 -3 -3 -3 -4 -5 -5 -6 -7 -7 -8 -9 -10 -10 -11
-1 -1 -1 -1 0 0 0 0 0 -0 -0 -0 -0 0 -0 -1 -1 -1 -1 -1 -1 -0 -0 -1 -1 -2 -2 -2 -3 -3 -3 -4 -4 -5 -6 -7 -7 -8 -9 -9 -11 -11 -12
-1 -1 -0 -1 0 0 0 0 -0 0 -0 -0 -1 -1 -1 -1 -2 -2 -1 -1 -1 -1 -1 -1 -1 -2 -2 -2 -3 -3 -4 -4 -5 -5 -6 -7 -8 -9 -9 -10 -11 -12 -13
-1 -1 -1 -1 0 0 0 0 -0 -0 -0 -0 -1 -1 -1 -2 -2 -2 -1 -1 -1 -1 -1 -1 -2 -2 -2 -3 -3 -4 -4 -5 -5 -6 -7 -7 -8 -9 -10 -11 -12 -13 -13
-1 -1 -0 -0 0 0 0 -0 -0 -0 -0 -0 -1 -1 -1 -1 -2 -2 -1 -1 -1 -1 -1 -1 -2 -2 -2 -3 -3 -4 -4 -5 -6 -6 -7 -8 -9 -10 -10 -11 -12 -12 -13
-1 -1 -1 -0 0 0 0 -0 -0 -0 -0 -0 -1 -1 -1 -2 -2 -2 -1 -1 -1 -1 -1 -2 -2 -2 -3 -3 -3 -4 -4 -5 -6 -6 -7 -8 -9 -10 -10 -10 -11 -12 -12
-1 -1 -0 0 0 0 0 0 0 -0 -0 -0 -1 -1 -2 -2 -2 -1 -1 -1 -1 -1 -1 -2 -2 -2 -3 -3 -4 -4 -5 -5 -6 -7 -7 -8 -9 -10 -10 -10 -10 -11 -12
-1 -0 1 0 0 1 1 0 0 0 -0 -0 -1 -1 -1 -2 -2 -1 -1 -1 -1 -1 -1 -1 -2 -2 -3 -3 -4 -4 -5 -5 -6 -7 -7 -8 -9 -9 -9 -9 -10 -10 -11
-1 0 1 1 1 1 1 1 1 0 -0 -0 -0 -1 -1 -2 -2 -1 -1 -0 -0 -1 -1 -1 -2 -2 -3 -3 -4 -4 -4 -5 -6 -7 -7 -8 -9 -9 -9 -9 -9 -10 -10

GFSGL_700_temp_174.txt.gz
Temp
3 3 4 4 4 4 4 3 3 3 2 2 2 2 2 2 1 1 1 1 1 1 1 1 1 0 0 0 0 -0 -0 -0 -1 -1 -1 -1 -2 -2 -2 -2 -3 -2 -3
2 3 4 4 4 4 3 3 3 3 2 2 2 1 1 1 1 1 1 1 0 0 1 1 1 0 0 -0 -0 -0 -0 -0 -1 -1 -1 -2 -2 -2 -2 -2 -2 -2 -2
2 3 3 3 3 3 3 3 3 2 2 2 2 1 1 1 1 1 1 1 1 1 1 1 1 0 0 0 0 -0 -0 -1 -1 -2 -2 -2 -2 -2 -2 -2 -2 -2 -2
2 3 3 3 3 3 3 3 3 2 2 1 1 1 0 -1 -0 0 0 1 1 1 1 0 0 0 -0 -0 -0 -0 -1 -1 -1 -2 -2 -2 -2 -2 -2 -2 -3 -3 -3
2 2 2 3 3 3 3 3 2 1 1 1 1 -0 -1 -1 -0 -0 0 0 0 0 0 -0 0 -1 -0 -0 -1 -1 -1 -1 -2 -2 -2 -3 -3 -3 -3 -3 -3 -3 -3
2 2 2 2 3 3 2 2 1 1 1 0 -0 -0 -0 -0 -0 -0 -0 -0 1 1 1 -1 -1 -1 -1 -1 -2 -2 -1 -2 -2 -3 -1 -2 -2 -2 -3 -3 -3 -3 -3
1 2 2 2 2 2 2 1 1 1 1 0 -1 -0 -0 -0 -1 -1 -1 -0 -1 0 -0 -1 -1 -1 -1 -2 -1 -2 -2 -1 -2 -2 -2 -2 -2 -3 -3 -3 -3 -3 -3
1 2 2 2 2 1 2 -1 0 -0 0 -0 0 0 0 0 0 -1 -1 -0 -1 -0 -1 -1 -0 -0 -0 -1 -1 -2 -2 -2 -2 -2 -2 -2 -3 -2 -2 -3 -3 -3 -4
1 2 2 1 1 1 1 -1 -0 -1 -0 0 -1 -1 -1 -1 -1 -1 -2 -1 -0 1 0 -0 -1 -1 -1 -2 -2 -2 -2 -2 -2 -2 -2 -2 -3 -3 -3 -2 -3 -3 -4
1 1 1 1 0 1 -0 0 -1 -0 -0 -1 -1 -2 -1 -1 -1 -1 -1 -1 -1 -1 -1 -1 -1 -1 -1 -1 -2 -2 -2 -2 -2 -2 -2 -2 -2 -2 -3 -3 -3 -4 -4
1 1 1 0 -0 -1 -1 0 -0 -1 -0 -1 -1 -2 -1 -1 -0 -0 -0 -1 -1 -1 -1 -1 -1 -1 -1 -1 -1 -1 -2 -2 -2 -2 -2 -2 -2 -2 -3 -3 -4 -4 -5
0 1 0 -0 -0 -1 -1 -1 -0 -1 -1 -1 -1 -1 -0 -0 -0 -0 -0 -0 -1 -1 -1 -1 -1 -1 -1 -1 -1 -1 -1 -2 -2 -2 -2 -2 -3 -3 -4 -4 -4 -5 -6
0 0 -0 -0 -0 -1 -1 -0 -1 -2 -1 -0 0 -0 0 0 0 -0 -1 -1 -1 -1 -1 -1 -0 -1 -1 -1 -1 -1 -1 -2 -2 -2 -3 -3 -4 -4 -4 -5 -5 -6 -7
-0 -0 -0 -0 0 1 -1 -1 -1 -1 0 0 0 -0 -0 -0 -1 -1 -1 -1 -1 -1 -1 -0 -0 -0 -1 -1 -1 -2 -2 -2 -3 -3 -3 -4 -4 -4 -5 -6 -7 -7 -8
-1 -1 -1 -0 0 1 0 -0 -0 -0 -0 -0 -0 -1 -1 -1 -1 -1 -1 -1 -1 -1 -0 -0 -0 -1 -1 -1 -2 -2 -3 -3 -3 -3 -4 -4 -5 -5 -6 -7 -7 -8 -9
-1 -1 -1 0 0 1 1 1 0 -0 -0 -1 -1 -1 -1 -1 -1 -1 -1 -1 -1 -1 -0 -1 -1 -1 -1 -2 -2 -3 -3 -3 -3 -4 -4 -4 -5 -6 -7 -8 -8 -9 -10
-1 -1 -1 -0 0 1 1 1 1 1 0 -0 -0 -1 -1 -1 -1 -1 -1 -1 -1 -1 -1 -1 -1 -1 -1 -2 -3 -3 -3 -3 -4 -4 -5 -5 -6 -7 -8 -9 -10 -11 -12
-1 -2 -2 -1 0 1 1 1 0 0 1 0 -0 -0 -1 -1 -1 -2 -1 -1 -1 -1 -1 -1 -1 -1 -1 -2 -3 -3 -4 -4 -4 -5 -5 -6 -7 -8 -8 -9 -10 -11 -12
-2 -2 -2 -2 0 0 0 0 0 -0 -0 -0 -0 0 -0 -1 -1 -2 -1 -2 -1 -1 -1 -1 -1 -1 -2 -3 -3 -4 -4 -4 -5 -5 -6 -6 -7 -8 -8 -9 -10 -11 -12
-1 -2 -2 -2 0 0 0 0 0 0 -0 -1 -1 -1 -1 -1 -2 -2 -2 -2 -1 -1 -1 -1 -1 -1 -2 -3 -3 -4 -4 -5 -5 -5 -6 -7 -8 -8 -8 -9 -10 -10 -12
-1 -2 -2 -2 -0 -0 0 0 -0 -0 -0 -1 -1 -1 -2 -2 -2 -2 -2 -2 -1 -1 -1 -1 -1 -2 -2 -3 -4 -4 -4 -5 -5 -6 -6 -7 -7 -8 -8 -9 -10 -10 -12
-1 -1 -2 -2 -1 -0 -0 -0 -0 -0 -1 -1 -1 -1 -1 -2 -2 -2 -2 -2 -2 -1 -1 -1 -1 -2 -3 -3 -4 -4 -5 -5 -5 -6 -6 -7 -7 -8 -8 -9 -10 -10 -11
-1 -1 -2 -2 -2 -1 -0 -0 -0 -0 -1 -1 -1 -1 -1 -2 -2 -2 -2 -2 -1 -1 -1 -1 -1 -2 -3 -3 -4 -4 -5 -5 -5 -6 -6 -7 -7 -7 -8 -9 -9 -10 -11
-2 -2 -2 -2 -2 -1 -0 -0 -0 -0 -1 -1 -1 -1 -2 -2 -2 -2 -2 -1 -1 -1 -1 -1 -2 -2 -3 -3 -4 -4 -5 -5 -5 -6 -7 -7 -7 -7 -8 -9 -9 -10 -11
-2 -2 -1 -2 -2 -0 -0 -0 -0 -0 -0 -0 -1 -1 -1 -1 -1 -2 -1 -1 -1 -1 -1 -1 -2 -2 -3 -3 -4 -4 -5 -5 -6 -6 -7 -7 -7 -7 -8 -8 -9 -10 -11
-2 -2 -1 -1 -2 -1 0 0 0 -0 -0 -0 -1 -1 -1 -1 -2 -2 -1 -1 -1 -1 -1 -1 -2 -2 -3 -4 -4 -4 -5 -5 -6 -6 -6 -7 -7 -7 -7 -8 -9 -10 -10